Regional Weather Roundup
Issued by NWS

Home | Current Version | Previous Version | Graphics & Text | Print | Product List | Glossary On
Versions: 1 2 3 4 5 6 7 8 9 10 11 12 13 14 15 16 17 18 19 20 21 22 23 24 25 26 27
000
ASUS45 KSLC 240210
RWRUT

UTAH REGIONAL WEATHER ROUNDUP
NATIONAL WEATHER SERVICE SALT LAKE CITY UT
800 PM MDT TUE AUG 23 2016

UTZ001>011-023>025-240300-

NORTHERN UTAH

CITY           SKY/WX    TMP DP  RH WIND       PRES   REMARKS
BRIGHAM CITY     N/A     80  17   9 N18       30.03R
HILL AFB       CLEAR     79  28  15 N3        30.06R
LOGAN          CLEAR     73  33  23 N9        30.06R
OGDEN          CLEAR     81  24  12 N3        30.03R
PROVO AIRPORT  PTCLDY    77  55  47 W5        30.04R
SALT LAKE CITY PTCLDY    84  30  14 N9        30.01R
VERNAL         CLOUDY    74  39  28 W5        30.10R
WENDOVER       CLEAR     84  25  11 W15G21    30.02R
HEBER CITY     CLEAR     73  32  21 NW3       30.10R
WEST JORDAN    CLEAR     80  33  18 N3        30.05R

$$

UTZ012>022-026-027-240300-

SOUTHERN/CENTRAL UTAH

CITY           SKY/WX    TMP DP  RH WIND       PRES   REMARKS
BLANDING       CLOUDY    58  53  84 NE7       30.31F
BRYCE CANYON   CLOUDY    54  48  80 SW3       30.32R
CEDAR CITY     CLOUDY    73  42  32 SW10      30.19R
DELTA          MOCLDY    79  32  18 SW6       30.06S
MILFORD        CLOUDY    78  44  29 SW15      30.09
MOAB/CYNLANDS  CLOUDY    74  48  39 SW7       30.13R
PRICE          MOCLDY    71  38  29 E9        30.17S
ST GEORGE      PTCLDY    86  48  26 W10       30.05R

$$

REGIONAL REPORTS     COLORADO/ARIZONA

CITY           SKY/WX    TMP DP  RH WIND       PRES   REMARKS
CRAIG, CO      LGT RAIN  60  47  61 S28G37    30.22S
GRAND JUNCTION CLOUDY    74  47  38 E15       30.13R
RIFLE          LGT RAIN  59  52  77 NW10      30.25R
MONTROSE       CLOUDY    65  46  50 SE15      30.24R
CORTEZ         LGT RAIN  56  53  90 E8        30.23F
PAGE, AZ       CLOUDY    76  46  34 NW3       30.09R
GRAND CANYON   CLOUDY    59  51  75 N6        30.30R
KINGMAN        CLEAR     83  52  34 S5        30.08
FLAGSTAFF      PTCLDY    57  52  83 SW5       30.31R

$$

REGIONAL REPORTS    NEVADA/IDAHO/WYOMING

CITY           SKY/WX    TMP DP  RH WIND       PRES   REMARKS
LAS VEGAS, NV  NOT AVBL
ELY            PTCLDY    78  26  14 W10       30.18R
ELKO           CLEAR     82  12   7 W15       30.10S
POCATELLO, ID  CLEAR     71  23  16 SW12      30.09S
BURLEY         CLEAR     66  34  30 SW12      30.07S
EVANSTON, WY   CLEAR     66  20  17 W10       30.23R
ROCK SPRINGS   CLOUDY    70  19  14 NW21      30.17R

$$




USA.gov is the U.S. government's official web portal to all federal, state and local government web resources and services.